Wind_Speed
13 11 12 13 13 13 13 15 16 16 16 16 16 17 17 17 17 15 14 14 14 14 14 14 13 13 13 13 12 11 10 9 9 8 7 6 6 7 7 7 8 7 7 7 7 7 7 7 7 7 7 8 7 7 7 7 8 8 7 7 7 7 7 6 6 6 7 7 7 8 8 8 8 8 8 8 7 7 9 10 10 11 12 12 12
14 12 12 13 13 12 12 14 16 17 17 17 16 17 18 18 18 17 16 15 14 14 14 13 13 12 12 12 12 11 10 9 9 8 7 6 5 5 6 7 6 6 7 7 7 7 6 7 7 7 7 7 7 7 7 7 7 7 6 6 6 6 6 5 5 6 6 6 6 6 6 7 7 7 7 8 7 7 8 10 10 11 13 13 12
14 13 13 14 14 13 12 13 16 17 16 16 16 17 18 19 19 19 17 15 14 14 14 13 12 12 12 12 12 11 11 10 9 8 7 6 5 5 5 5 5 5 6 6 6 6 6 7 7 6 6 7 7 7 6 6 6 6 5 5 5 4 4 4 5 5 6 6 5 5 5 6 6 6 6 7 7 7 8 9 10 11 12 13 12
14 14 14 14 14 14 13 13 15 16 16 16 17 16 17 19 20 20 18 16 14 14 13 13 13 13 13 13 12 12 12 11 10 9 8 7 6 6 5 5 5 5 5 5 5 6 6 6 7 7 6 6 6 5 5 5 5 5 4 4 4 4 4 4 4 5 5 5 6 6 5 6 6 6 6 6 6 8 8 8 9 10 12 12 11
14 15 15 14 15 15 14 13 14 16 17 17 17 17 17 19 21 21 19 17 15 14 14 14 14 14 14 14 14 13 13 11 10 10 10 9 7 6 6 5 4 4 4 5 5 5 6 6 7 7 7 6 6 5 4 4 3 3 3 3 3 3 4 4 4 4 4 4 5 6 6 6 6 7 7 6 7 8 8 9 10 10 11 12 10
15 15 15 15 15 15 14 13 14 15 17 17 17 18 17 18 20 21 20 18 16 15 15 15 15 15 15 15 14 13 12 11 10 10 9 9 8 7 7 6 4 4 4 4 4 5 5 6 7 7 7 7 7 6 6 5 3 2 2 2 2 2 3 4 4 4 5 5 5 5 6 6 6 7 7 7 7 8 9 9 10 10 10 11 10
16 16 16 16 16 16 15 14 14 15 17 17 17 17 17 17 19 21 21 19 18 16 16 17 17 16 16 15 14 13 12 11 11 10 9 9 8 8 8 7 5 4 3 3 4 4 5 5 6 6 7 7 7 7 7 6 5 3 2 2 2 1 2 3 3 4 5 5 5 6 6 6 6 6 7 8 8 9 9 9 10 10 9 9 9
17 16 16 16 16 16 16 15 15 14 15 17 17 17 17 17 18 20 22 21 19 18 18 18 18 17 17 15 14 13 13 12 12 11 11 10 9 9 8 7 6 4 3 3 3 4 4 5 5 6 6 6 6 6 6 5 5 4 3 2 2 1 1 2 3 4 5 5 6 6 7 6 7 7 7 7 8 9 9 9 9 9 9 9 8
16 16 16 17 17 17 17 17 16 14 14 15 17 17 17 17 17 19 22 22 21 20 19 19 19 18 17 16 14 14 13 13 13 13 12 11 10 10 9 8 7 5 4 3 3 3 4 4 5 5 5 5 5 5 4 4 4 4 4 3 2 1 1 1 2 4 5 5 6 7 7 7 7 7 7 7 8 8 9 9 9 9 9 9 8
16 16 17 18 19 19 20 19 17 15 14 14 16 17 17 17 16 17 21 24 24 22 21 20 19 19 18 16 15 14 14 14 14 14 13 12 11 10 10 9 8 6 5 3 3 3 3 3 4 4 4 4 4 4 4 3 3 4 4 3 3 2 1 1 2 3 4 5 6 7 8 8 7 7 8 8 8 8 8 9 9 9 8 8 8
18 18 19 20 20 20 20 20 18 16 14 13 14 16 17 17 17 18 20 24 25 24 23 21 20 19 18 16 16 15 16 15 15 15 13 13 12 11 10 10 9 8 6 4 3 2 2 2 2 2 2 3 3 3 3 3 3 3 3 3 3 2 2 1 2 3 3 5 6 7 8 8 8 7 8 8 8 8 8 8 9 8 8 8 8
21 20 20 20 21 21 21 20 19 17 15 14 14 15 17 17 18 18 19 23 26 26 24 22 21 19 18 16 16 16 17 16 15 14 13 13 12 11 11 11 10 8 7 5 3 2 2 2 2 2 2 2 3 3 3 3 3 3 3 3 3 3 3 2 3 3 4 5 6 7 8 8 8 8 8 9 9 9 8 8 9 8 8 8 8
21 21 21 21 22 23 22 20 19 18 16 14 14 15 17 18 18 18 19 23 27 28 26 24 22 19 18 16 16 17 17 17 16 14 14 13 13 12 11 11 10 9 7 6 4 4 3 3 2 2 2 2 2 3 3 3 3 3 3 2 2 2 3 3 3 4 4 5 6 8 8 8 8 8 8 9 9 9 9 8 8 8 8 7 7
19 19 22 24 23 22 21 20 20 19 17 16 16 16 17 19 20 19 19 22 27 29 28 26 24 20 18 17 17 18 17 17 16 15 14 14 14 13 12 12 11 10 9 7 6 5 4 3 3 2 2 1 2 2 3 3 3 2 2 2 2 2 2 3 3 4 4 5 6 8 9 9 8 8 8 8 8 9 9 8 7 8 7 7 6
17 16 19 21 21 20 21 21 20 21 20 19 18 17 18 20 21 20 20 22 27 30 29 28 25 22 19 18 18 19 18 17 16 15 15 15 14 14 13 12 12 11 10 8 8 7 5 4 3 3 2 2 2 2 3 3 3 2 2 2 2 2 2 2 3 3 4 4 6 7 8 9 9 8 8 7 8 8 8 7 6 6 6 6 6
16 15 15 18 19 21 22 22 22 22 22 21 19 19 20 21 21 21 21 22 26 30 31 30 27 23 21 20 20 20 18 17 17 16 16 15 15 14 14 13 12 12 11 10 8 7 6 5 4 3 2 2 2 2 3 3 2 2 2 2 2 2 2 2 2 3 3 4 5 6 8 9 9 8 8 7 8 7 7 7 6 6 5 5 6
17 17 18 19 20 22 22 21 21 21 21 22 21 21 22 22 23 23 22 22 25 30 32 31 29 25 22 21 21 20 19 18 18 17 16 16 15 15 15 14 13 13 13 11 10 9 8 6 5 4 3 3 3 3 3 4 3 3 2 2 2 2 2 2 2 2 3 4 5 6 7 8 8 8 8 8 8 8 7 7 7 6 6 5 5
20 21 22 22 21 22 22 20 20 21 23 23 23 23 24 23 24 24 23 23 25 29 32 31 30 27 24 22 22 22 21 20 19 17 16 16 16 16 15 15 15 15 14 12 11 10 9 8 6 5 4 3 4 4 4 5 4 3 3 3 3 2 1 2 2 1 3 4 5 6 6 7 8 8 7 7 7 7 7 7 7 6 6 6 6
22 23 23 23 22 22 22 23 24 25 25 25 25 25 24 23 23 24 23 23 25 28 30 32 31 28 26 24 24 24 22 21 19 18 17 17 17 16 16 16 16 16 15 14 12 11 10 9 7 5 4 4 4 5 5 5 5 5 4 3 3 2 2 2 1 1 2 3 4 5 6 7 8 8 8 7 7 6 6 6 6 6 6 6 6
24 24 24 24 23 21 21 24 28 28 25 25 26 25 24 23 22 22 22 22 23 25 28 30 31 30 27 26 25 25 23 22 20 19 18 18 18 17 17 17 17 17 17 15 14 12 11 10 8 7 6 5 5 5 6 6 6 6 5 4 4 3 3 2 1 2 2 2 2 4 5 6 7 8 8 8 7 6 5 5 5 5 5 5 5
26 26 25 24 25 23 19 20 26 27 23 23 26 25 23 22 21 21 23 23 23 24 25 28 30 30 28 27 26 26 25 23 21 20 19 19 18 18 18 18 18 18 18 16 15 14 13 11 10 9 8 7 7 7 7 7 7 6 6 5 4 4 4 3 3 3 2 2 2 2 3 4 6 7 8 8 7 6 5 4 4 4 4 3 3
28 28 26 25 26 26 21 19 23 23 20 21 24 24 23 23 22 22 23 23 23 22 23 26 29 30 29 28 27 26 26 24 22 21 20 19 20 20 20 20 19 20 20 18 17 16 14 13 12 11 10 9 9 8 8 8 7 7 7 6 5 4 4 5 5 4 3 3 2 2 2 3 4 5 6 7 7 7 6 5 4 4 4 3 3
29 29 27 26 26 26 23 22 22 22 20 20 21 23 24 25 25 25 25 24 22 22 23 25 27 30 31 30 28 27 26 25 23 22 21 21 22 22 22 21 21 22 22 20 19 18 17 16 14 13 12 12 11 10 9 9 8 8 8 7 6 6 5 6 6 6 6 5 4 4 3 3 3 4 5 5 6 6 7 7 6 6 5 5 5
31 30 28 27 26 25 25 26 25 24 22 19 19 23 26 26 27 29 28 25 22 22 24 25 27 30 33 32 30 28 27 26 25 23 22 22 23 23 23 23 23 24 23 22 21 20 19 18 17 16 15 14 13 12 11 10 9 9 9 8 8 7 7 7 7 7 7 7 6 6 5 5 4 4 4 5 5 5 6 7 7 7 7 7 7
32 31 29 28 27 26 25 26 27 26 23 21 21 23 25 25 27 30 29 27 25 23 23 25 27 30 33 33 32 30 29 28 27 25 24 24 24 24 25 24 25 25 24 24 23 21 21 20 19 18 17 16 15 14 13 11 10 10 10 10 9 9 9 8 9 9 8 8 8 8 7 7 6 6 5 5 5 5 6 7 7 7 8 8 8
34 32 31 30 29 27 26 24 25 26 25 25 23 19 19 24 28 30 30 28 25 21 21 24 26 28 31 33 33 32 31 30 29 28 27 25 25 25 26 26 26 26 25 25 24 23 22 22 21 20 19 18 17 16 15 14 12 12 11 11 11 11 11 11 11 10 10 10 9 9 9 8 8 8 7 7 6 6 7 7 7 7 8 8 8
36 35 33 32 32 30 28 25 25 26 25 28 27 20 19 24 27 27 27 26 25 22 22 24 25 25 27 30 32 33 33 32 31 30 29 28 26 26 26 26 27 27 26 26 25 24 23 23 23 22 21 20 19 18 17 16 15 14 13 13 13 13 13 12 12 12 12 11 10 10 10 9 9 9 8 8 8 8 8 8 8 8 8 8 8
39 38 36 35 34 33 31 28 27 27 26 27 28 27 27 27 24 23 22 23 26 25 23 23 24 24 25 27 30 32 33 34 33 32 31 30 28 27 27 27 27 27 27 27 26 25 24 24 24 23 22 22 21 21 20 19 18 17 16 16 15 15 14 14 14 14 13 12 12 12 11 10 10 9 9 9 8 8 8 8 8 8 8 8 8
42 41 39 38 37 36 35 32 30 29 28 27 27 28 31 30 26 22 17 18 22 24 24 24 24 24 25 25 27 29 32 33 34 34 33 32 31 29 28 28 28 27 27 27 27 27 25 25 24 24 24 24 23 23 22 21 21 20 19 18 17 16 16 15 15 15 15 14 13 13 12 11 10 10 10 10 9 9 9 8 8 8 8 8 8
44 43 42 41 40 39 38 36 34 33 31 30 28 27 29 31 31 26 19 17 21 23 26 27 26 25 26 26 26 27 29 31 33 33 34 34 33 32 30 30 29 28 28 28 27 27 27 26 25 25 25 25 25 25 24 24 24 23 22 21 20 19 18 17 17 17 17 16 16 15 14 13 12 11 11 11 11 11 10 10 10 9 9 9 9
46 45 44 43 42 42 40 39 38 37 35 33 31 29 28 30 32 31 26 23 24 25 26 29 30 29 28 27 27 26 26 28 31 33 34 35 35 34 33 31 30 29 29 28 27 27 27 27 27 26 26 26 26 26 26 26 26 26 25 24 23 21 20 20 19 19 18 18 18 17 16 15 14 14 13 13 13 13 13 13 12 12 12 12 12
48 47 47 46 45 44 43 42 41 40 39 37 35 32 31 30 31 32 31 28 28 28 26 25 28 31 31 30 29 28 28 28 29 31 34 36 37 37 35 33 32 31 30 30 29 28 28 27 27 27 26 26 26 26 26 26 27 27 26 26 25 24 23 22 21 20 20 20 20 19 18 17 16 16 16 16 15 15 15 16 15 15 14 14 15
50 50 49 48 48 47 46 45 44 43 42 41 39 37 35 34 33 34 34 32 30 30 28 25 26 30 32 32 32 31 30 30 30 30 32 35 37 37 36 36 35 34 33 32 30 29 28 28 27 27 26 25 26 26 25 26 28 28 27 27 26 26 25 24 23 22 22 22 21 21 20 19 19 18 18 18 18 18 18 18 18 17 17 17 18
51 51 51 51 50 49 48 47 46 45 45 44 44 42 40 38 37 36 37 36 33 32 32 31 30 30 31 32 35 35 33 32 32 31 31 33 35 35 35 36 37 36 35 33 32 31 30 29 28 27 26 25 25 25 24 25 27 28 28 28 27 26 26 25 25 24 23 23 23 23 22 22 21 21 21 21 21 21 21 21 20 20 19 20 20
51 52 53 53 53 52 51 50 48 47 48 47 47 46 44 43 41 40 40 40 38 37 35 35 35 34 32 33 35 37 36 35 35 34 33 32 32 33 34 36 37 37 37 35 35 34 32 31 30 29 27 26 25 25 24 24 26 28 29 29 27 27 26 26 26 25 24 24 24 24 24 23 23 23 23 24 24 24 24 23 23 23 22 22 23
50 52 53 53 54 54 54 53 52 51 50 50 50 50 49 47 45 44 44 43 42 41 40 39 38 37 36 34 33 35 37 38 37 36 36 35 33 32 33 34 35 37 37 37 37 36 35 34 33 31 30 28 28 27 26 25 26 28 29 28 27 26 26 26 26 26 26 25 25 24 24 25 25 25 25 26 27 27 26 25 25 25 25 25 25
49 51 52 52 53 54 55 55 55 54 53 53 53 53 52 52 50 49 48 47 46 45 44 43 41 40 40 38 35 34 37 38 37 36 36 37 37 36 34 32 33 35 36 37 38 38 37 36 35 34 32 31 30 30 29 28 28 29 29 28 27 26 26 25 25 26 26 26 25 25 25 26 26 26 27 28 29 29 28 27 27 27 27 27 27
50 50 51 52 52 53 54 55 56 56 56 56 56 56 55 55 54 54 52 51 50 49 47 47 46 44 43 40 37 36 37 36 34 34 35 36 37 37 36 34 32 32 34 35 37 38 38 38 37 36 35 33 33 32 32 31 31 32 31 30 28 26 25 24 25 26 27 27 27 27 27 27 26 27 29 29 29 29 29 28 28 28 27 27 28
51 51 51 51 51 52 53 53 54 55 56 57 57 57 57 56 56 55 55 54 52 51 50 49 48 47 44 40 37 39 40 37 34 33 34 35 35 36 38 38 36 32 31 32 33 35 36 37 37 36 36 36 35 35 34 34 34 34 34 33 31 29 26 25 25 26 27 28 28 29 29 28 28 28 30 30 30 30 29 28 28 27 26 25 28
51 51 51 52 52 52 52 52 53 53 55 56 56 57 57 57 56 55 55 54 53 52 51 50 49 48 45 42 41 42 42 40 38 35 34 35 36 37 39 41 40 35 32 30 30 31 32 34 35 36 37 37 36 36 37 36 36 36 36 36 34 32 29 28 27 27 28 28 29 29 30 30 30 30 31 31 31 31 30 29 27 25 24 25 28
53 52 52 53 53 53 53 53 53 53 53 54 55 56 56 56 56 55 55 54 53 51 51 51 49 48 46 45 46 48 48 46 43 40 38 37 38 38 40 41 40 37 33 31 29 29 29 30 32 34 36 37 37 37 38 38 38 38 38 38 37 35 33 32 31 30 29 29 29 30 31 31 31 32 32 32 32 31 30 29 26 24 24 25 28
54 54 54 54 54 53 54 54 54 54 54 54 54 55 55 55 55 55 55 54 53 51 51 50 49 48 48 47 47 47 47 47 47 46 44 43 41 39 38 38 37 35 33 31 30 29 29 29 30 32 34 35 36 37 38 39 39 39 39 39 38 37 37 36 35 33 32 31 31 31 32 32 33 33 34 34 33 32 31 29 26 25 25 27 28
54 55 55 55 55 55 55 55 55 55 55 56 55 55 55 55 55 55 55 54 52 51 51 51 49 47 47 47 46 45 44 44 46 47 47 46 44 41 38 36 36 36 35 34 33 31 30 30 30 30 31 33 34 36 38 39 39 39 39 40 40 40 39 39 37 36 35 34 34 34 34 34 35 35 35 35 34 33 31 29 28 28 29 30 31
55 56 56 56 56 56 56 56 56 56 56 57 57 57 57 56 56 56 56 56 54 51 50 51 52 51 48 45 43 44 45 45 44 45 47 47 46 43 40 38 36 36 36 37 37 35 33 32 31 31 31 31 33 35 36 37 38 38 39 40 40 40 41 41 40 39 38 37 37 37 38 38 38 37 37 38 37 36 33 31 30 31 32 32 32
57 58 57 57 57 57 57 57 57 57 57 58 59 59 59 59 58 58 57 57 57 55 52 51 52 54 54 50 45 44 45 45 44 43 45 47 46 45 43 41 39 38 36 35 37 38 37 36 34 32 32 32 33 33 34 36 37 38 39 40 41 41 41 42 41 41 40 40 39 39 40 40 41 41 41 41 40 38 36 33 33 33 33 33 32
58 59 59 59 59 60 59 58 58 59 59 59 59 60 61 61 61 60 60 60 59 58 57 55 53 53 53 53 51 48 46 46 46 45 45 44 42 41 40 40 40 40 38 36 35 36 38 38 37 35 34 34 34 34 35 37 39 39 38 39 41 42 42 42 42 41 41 41 41 41 41 42 43 44 44 43 42 40 38 35 33 32 32 32 32
58 59 60 61 61 62 62 61 60 60 60 60 60 60 61 63 63 63 63 62 62 61 60 59 57 56 54 53 52 50 47 46 45 45 45 44 44 43 42 40 40 40 40 39 37 35 35 36 37 38 38 37 37 37 39 41 41 39 39 40 42 42 42 42 42 42 42 42 42 42 43 43 44 45 44 43 42 40 37 35 32 31 31 32 33
59 60 61 62 62 63 64 64 63 63 63 63 62 61 62 63 64 65 65 65 64 64 63 61 60 60 59 57 55 54 51 49 47 45 43 41 41 42 40 40 41 42 42 41 40 38 36 35 36 38 38 38 39 41 42 44 42 40 39 41 42 42 42 43 44 45 45 44 43 43 43 42 42 42 43 42 40 37 35 32 31 31 32 32 32
61 62 63 63 64 64 65 66 66 66 65 65 65 64 63 63 64 65 67 67 67 66 66 65 63 62 61 61 60 59 57 55 53 52 48 44 42 40 37 37 39 40 41 43 42 40 39 38 37 37 38 39 40 40 40 40 40 41 41 40 39 39 41 42 44 44 44 43 43 43 42 41 39 39 39 39 37 34 31 30 31 31 31 32 32
60 63 65 66 66 66 66 67 68 69 69 68 67 67 66 66 65 66 67 68 69 69 68 68 67 65 64 63 63 62 61 60 58 57 55 52 50 47 44 41 40 38 39 41 41 40 40 39 38 38 39 40 40 39 38 38 40 42 44 43 40 39 39 42 43 43 42 40 39 40 41 38 36 36 37 35 33 32 30 30 30 31 31 32 32
56 59 63 66 68 69 69 69 69 70 70 71 70 70 69 69 68 68 68 68 69 70 71 70 70 69 67 66 65 64 64 63 61 60 59 57 55 53 50 48 46 42 39 39 39 39 41 41 39 38 40 42 42 40 39 40 40 42 45 46 43 40 39 41 43 44 43 39 35 35 35 32 31 34 35 34 32 32 31 30 30 30 31 32 32
Wind_Direction
190 188 184 183 186 189 191 191 187 185 183 180 183 186 187 188 189 189 191 190 185 183 182 180 179 180 181 179 174 170 167 162 156 147 139 137 137 142 148 149 152 153 151 150 147 144 140 134 128 127 126 123 118 113 110 108 106 104 102 101 100 101 104 110 115 115 112 111 111 114 117 118 120 117 111 103 99 104 112 114 113 111 105 100 97
189 188 186 182 185 189 192 194 191 189 188 185 183 187 189 190 192 192 193 195 191 186 186 184 181 182 186 187 181 175 173 170 167 158 148 146 148 151 154 155 158 159 158 158 157 156 154 149 141 139 139 137 135 131 124 118 112 108 105 103 101 103 108 116 124 123 120 118 117 120 121 120 120 117 110 104 98 101 113 118 117 114 109 105 103
193 190 189 186 185 188 192 195 195 193 191 188 186 188 191 192 194 196 197 199 195 190 188 186 184 185 188 189 186 182 179 178 176 167 157 159 162 163 161 160 163 164 165 165 164 165 165 162 157 155 155 152 149 146 136 125 117 112 108 107 107 111 118 128 131 126 125 127 126 129 134 132 126 120 114 111 109 109 114 117 115 113 109 106 103
200 197 194 193 191 190 192 194 196 195 193 191 190 191 193 195 196 198 198 199 198 193 189 186 187 188 190 190 189 188 185 184 183 174 171 179 177 173 170 164 165 165 166 168 166 169 171 170 168 168 172 168 162 157 145 132 121 116 116 117 122 128 130 136 137 132 132 133 133 137 145 145 139 132 125 120 119 119 121 120 117 115 111 106 103
207 204 201 199 199 198 195 195 196 197 196 194 193 193 194 197 199 200 200 199 197 195 191 188 189 190 191 192 192 192 189 187 189 182 181 187 182 175 175 169 165 165 164 165 164 168 173 175 176 177 180 182 182 180 170 159 145 134 127 128 135 133 131 138 142 139 138 139 142 140 142 144 141 136 132 126 124 126 130 130 126 124 120 115 112
217 215 209 205 207 207 202 199 199 198 199 199 197 195 196 199 201 202 203 200 196 196 195 193 192 193 194 195 195 196 192 190 193 193 190 190 184 178 179 174 168 164 163 163 164 168 173 176 178 179 182 186 191 194 196 199 196 179 147 137 144 137 134 136 137 142 141 142 147 141 137 139 139 136 134 130 129 132 137 140 136 134 131 126 124
223 223 217 212 213 213 208 204 204 202 202 203 201 199 197 199 202 204 204 202 197 196 197 198 197 197 198 199 199 198 197 195 197 200 201 198 190 185 182 178 169 164 162 162 162 165 171 176 177 177 180 184 191 196 203 210 212 214 206 163 156 154 141 131 128 133 135 141 148 141 137 138 136 134 131 128 131 138 143 145 143 141 139 136 133
224 225 224 220 215 214 211 208 208 206 204 204 202 200 199 200 202 205 205 204 201 197 199 202 202 201 201 201 201 200 200 199 199 204 207 205 199 192 187 181 171 168 168 169 166 161 164 173 175 175 177 178 183 189 197 203 202 208 216 197 179 166 138 132 131 131 133 144 151 146 143 142 138 134 131 129 135 144 147 146 147 146 146 145 143
225 225 226 224 219 215 212 212 213 208 205 205 203 202 201 201 202 205 206 205 204 202 201 205 207 206 205 203 202 203 204 203 203 206 209 209 205 198 194 187 178 173 177 178 176 168 163 165 168 169 169 169 172 176 183 188 182 191 203 201 202 206 178 156 137 134 138 148 156 153 148 145 143 139 136 135 138 146 149 149 151 155 155 154 152
233 229 223 220 220 218 213 213 213 208 205 205 205 204 203 201 202 205 207 206 206 205 204 207 209 210 210 207 204 206 210 211 210 210 210 211 208 201 198 195 187 179 181 187 184 178 172 168 166 163 162 159 159 160 162 164 164 173 186 193 204 208 206 195 146 142 145 151 161 161 153 150 150 144 140 141 143 148 152 154 156 161 163 160 157
238 235 226 220 220 220 217 217 214 206 205 206 205 206 204 202 202 204 207 207 206 205 206 208 211 212 213 211 209 211 214 216 217 215 213 214 211 205 201 200 194 184 181 187 190 190 195 199 185 169 164 157 152 152 151 151 154 160 168 175 184 185 179 171 147 144 148 156 166 166 159 156 155 150 145 144 147 149 154 159 160 166 172 168 162
236 238 234 228 226 223 218 219 218 210 205 204 204 205 204 203 203 205 207 208 207 206 206 208 211 213 214 213 213 216 217 217 219 220 218 217 214 210 205 202 199 190 182 184 192 202 210 212 196 171 175 174 165 157 149 150 147 148 156 159 163 166 163 158 150 147 153 162 168 170 167 162 158 155 151 150 151 152 158 164 165 170 178 175 167
234 235 232 227 225 223 218 214 215 214 208 202 201 204 204 203 204 207 208 207 207 205 206 208 212 212 212 212 215 219 220 218 218 219 221 221 217 213 208 204 201 193 185 183 190 207 212 201 182 164 170 181 171 159 152 150 142 139 145 147 154 158 158 160 159 156 157 161 168 173 173 168 162 158 156 155 155 156 161 167 169 172 179 180 173
227 220 219 220 222 225 224 219 213 211 208 203 201 203 205 205 204 206 209 209 206 205 205 207 211 212 209 209 213 218 221 220 217 216 220 223 220 215 209 204 200 194 189 188 190 204 212 202 188 174 170 179 169 158 156 153 145 142 142 140 150 159 160 165 166 165 165 163 169 176 176 172 167 162 159 158 158 160 164 168 172 175 178 179 173
231 217 214 216 222 229 231 226 216 211 210 206 202 205 208 206 205 205 208 210 207 205 205 207 210 210 206 204 210 215 218 219 218 216 218 223 222 218 211 203 199 196 195 194 193 201 210 207 201 194 189 198 185 164 166 170 161 154 149 144 155 161 159 165 171 177 180 178 177 177 177 177 172 166 161 157 155 157 161 167 173 178 180 177 169
249 245 234 223 224 228 229 227 219 213 210 207 205 208 211 208 206 207 208 208 208 205 205 208 210 209 205 202 207 213 214 215 217 216 217 221 222 220 215 206 199 198 200 199 198 201 206 208 207 206 210 217 210 181 171 178 179 179 172 161 164 159 154 166 184 192 197 199 194 185 182 181 176 169 162 156 153 156 161 166 172 178 183 178 168
247 250 244 232 227 227 228 228 223 218 215 212 209 210 213 211 208 208 208 207 209 208 207 208 209 209 207 203 205 211 213 212 215 216 217 220 221 220 218 211 203 202 203 203 203 203 205 208 211 215 220 221 217 200 183 181 185 197 196 178 175 160 146 163 185 208 216 217 214 203 194 189 184 176 167 161 159 160 163 167 172 177 181 180 176
238 236 234 232 227 226 229 230 226 222 219 216 213 213 215 214 210 208 208 207 209 210 209 208 210 210 209 205 205 210 213 212 212 214 217 221 222 220 218 215 209 206 207 207 209 210 209 210 215 222 226 222 217 206 196 189 182 190 206 201 196 186 170 173 177 220 237 228 224 217 207 201 196 188 179 173 169 166 165 168 172 175 178 178 181
241 236 233 233 231 228 228 228 225 222 220 216 215 217 218 217 215 211 208 209 211 213 212 210 210 212 210 208 207 210 213 212 211 213 217 221 223 222 220 218 215 211 210 210 213 216 216 214 219 228 233 226 220 211 204 198 185 183 198 216 214 211 217 207 181 222 244 240 233 226 218 213 207 201 196 190 182 175 171 171 172 175 178 179 182
245 244 240 238 241 236 227 226 223 215 214 217 216 217 218 219 219 214 210 212 213 216 217 214 212 213 212 211 210 213 215 213 211 212 216 220 223 223 223 221 218 217 215 214 216 219 220 220 222 230 234 230 225 218 211 206 196 188 192 208 222 226 232 238 230 233 237 244 246 233 225 223 216 211 209 206 200 191 183 178 175 175 177 177 180
244 247 246 245 250 247 236 237 229 211 204 215 219 218 219 220 220 215 212 213 214 217 220 218 217 216 216 215 214 215 217 216 213 212 215 220 222 224 224 222 221 221 220 218 218 220 221 223 225 229 231 230 227 224 218 213 207 202 199 202 213 226 237 244 245 244 239 240 254 247 232 228 224 221 220 220 217 212 204 193 185 183 180 175 177
241 246 246 245 248 247 241 244 242 226 215 219 219 219 222 223 222 220 215 211 211 216 220 222 221 220 219 219 218 219 220 220 217 214 215 218 222 225 225 222 222 223 222 220 219 220 222 223 226 229 230 230 229 227 224 220 215 212 212 211 212 221 233 240 244 248 244 238 244 252 241 230 230 229 230 231 231 231 229 221 214 213 208 206 207
239 244 246 244 243 243 238 236 242 244 239 230 223 221 222 222 222 222 216 208 207 214 219 221 223 222 222 221 220 221 224 225 223 219 216 217 222 225 225 224 223 224 223 223 221 221 222 223 226 228 230 231 231 231 229 226 224 220 220 221 220 221 227 234 240 245 246 244 242 246 242 232 231 232 233 237 239 241 243 243 242 241 237 235 236
237 242 244 244 241 239 237 235 238 244 244 242 238 231 227 226 225 221 212 202 204 213 217 219 222 223 223 223 222 222 224 227 229 226 221 218 220 225 226 226 226 226 225 225 225 223 222 224 225 228 230 231 232 233 232 230 230 227 225 227 226 227 228 231 236 240 244 246 246 246 243 238 234 235 236 238 240 244 247 250 252 253 252 252 250
234 238 241 243 242 238 236 235 236 239 240 238 235 230 230 233 232 225 212 200 202 213 217 218 221 223 224 224 223 224 225 227 231 232 230 224 222 224 226 227 228 229 228 227 227 226 224 225 226 228 231 232 233 234 233 231 231 231 231 230 230 231 232 233 235 238 240 243 246 248 248 246 243 240 238 237 237 242 245 249 253 256 258 261 262
231 234 237 240 241 240 238 235 235 237 237 234 230 230 236 234 230 227 219 207 206 215 222 222 223 224 225 226 225 225 226 228 230 233 234 232 228 227 228 228 229 231 230 230 230 228 227 228 229 230 232 234 235 236 235 233 232 233 234 232 232 234 235 236 238 238 239 240 243 246 247 249 249 248 248 244 241 242 244 246 250 253 256 260 263
228 230 233 236 239 240 239 237 237 236 237 237 235 238 242 234 229 230 227 219 217 221 225 226 229 229 227 227 228 226 227 229 230 232 235 236 234 233 232 231 231 231 233 234 233 232 230 231 232 233 234 236 237 238 238 237 234 234 235 235 234 235 236 239 241 242 241 240 241 245 246 247 248 251 253 252 250 250 251 252 253 254 258 261 264
226 227 229 232 235 237 238 239 240 238 238 240 240 241 240 235 239 243 237 230 230 230 228 230 233 234 232 232 231 230 229 230 231 232 235 237 237 237 236 236 235 234 235 236 237 236 234 234 235 235 236 238 240 240 241 240 238 236 236 237 236 236 237 239 242 245 246 244 243 245 247 247 247 249 252 254 255 255 256 257 259 260 263 267 270
223 224 226 228 231 234 236 238 239 240 240 241 241 243 241 239 247 254 248 240 239 237 237 238 239 239 238 237 236 235 233 234 234 234 235 238 240 239 239 240 240 239 238 239 240 240 239 238 237 237 238 239 241 242 242 242 242 239 238 238 239 239 239 239 241 244 246 247 246 246 248 249 249 248 250 253 255 257 259 260 260 263 266 269 274
223 224 225 226 228 231 234 236 237 238 240 241 240 241 242 243 248 252 251 244 240 239 238 237 237 238 239 239 241 240 239 238 238 237 237 238 240 241 241 241 242 243 243 242 243 243 244 243 241 241 240 240 241 242 243 244 244 242 240 240 240 241 242 241 241 243 244 246 247 247 247 249 250 250 250 253 256 259 262 261 261 263 267 271 275
224 224 225 226 227 229 232 235 235 235 237 240 241 240 242 244 247 248 247 242 240 242 242 237 233 233 233 235 238 240 240 241 240 239 239 239 239 241 242 242 243 244 246 246 245 245 245 246 246 245 245 244 244 244 244 245 246 245 244 242 242 242 243 244 244 244 245 246 247 247 247 247 250 253 253 255 257 260 263 265 266 267 269 272 275
224 225 226 226 227 229 231 234 235 235 235 238 240 242 243 245 247 248 248 244 240 242 247 247 241 236 232 231 233 235 236 238 239 239 240 240 240 240 241 242 243 244 246 247 247 248 248 249 249 249 250 250 250 249 248 248 249 249 247 246 245 244 245 245 246 247 247 248 248 249 248 247 248 252 255 257 259 261 264 267 270 272 275 276 278
224 226 227 227 228 229 230 232 234 236 236 237 238 240 242 245 247 249 250 249 247 245 247 248 247 244 240 234 231 232 232 233 234 237 239 240 240 240 241 242 243 243 244 246 248 249 250 251 252 253 254 254 255 256 255 254 255 254 253 251 249 248 248 248 248 249 250 251 252 252 252 251 250 251 254 257 260 262 264 266 269 272 276 278 281
225 226 227 227 228 229 230 232 234 235 237 238 238 239 240 242 246 250 251 252 252 249 246 244 244 249 251 245 237 232 231 232 233 234 237 239 239 239 240 241 243 244 244 245 247 248 249 250 252 254 255 256 257 258 258 259 260 260 259 257 254 253 252 252 252 252 252 253 255 256 256 256 254 254 255 257 260 262 264 266 268 271 274 277 280
225 226 227 227 228 230 231 232 234 235 236 238 239 240 240 241 243 247 250 253 253 252 250 248 246 248 255 257 249 240 235 234 234 234 237 239 239 239 239 238 240 242 244 245 246 247 247 248 249 250 251 252 255 256 256 257 260 262 262 261 261 259 258 257 255 255 255 255 256 257 258 259 259 258 257 259 260 262 263 265 268 271 273 276 278
226 227 228 229 229 230 232 233 235 236 237 238 239 240 241 241 242 244 248 251 252 252 252 252 251 252 255 257 256 253 248 242 238 239 241 240 240 240 240 239 238 239 241 242 244 245 246 247 247 248 248 248 250 252 252 252 255 259 262 263 264 264 263 261 260 259 258 257 257 258 259 259 260 260 259 260 261 263 264 266 267 270 272 275 278
228 228 229 230 230 231 232 234 235 237 238 238 239 240 241 242 243 245 248 250 251 252 252 252 253 254 254 252 255 261 260 252 247 246 246 244 243 240 240 241 240 239 239 241 242 244 245 246 246 247 248 248 249 251 251 250 251 253 256 259 261 262 262 263 263 262 261 259 259 258 258 258 259 261 261 261 262 263 265 267 268 269 271 274 277
231 230 230 231 232 232 233 234 235 236 237 238 239 240 241 242 243 245 247 250 251 251 252 253 254 254 255 256 258 262 263 259 254 252 250 250 249 245 243 243 243 242 240 240 242 244 245 246 247 248 249 249 250 251 252 252 253 254 254 254 254 254 256 257 259 260 260 259 258 257 257 257 258 259 260 261 262 264 265 267 268 268 270 273 277
235 233 232 232 233 233 233 234 235 236 236 237 239 240 241 242 243 245 246 248 250 251 251 253 255 256 257 258 259 260 261 259 256 255 253 251 250 246 244 244 245 246 245 242 242 243 245 246 247 248 249 249 250 252 252 253 255 256 257 256 254 252 250 250 252 254 255 256 256 256 257 257 257 258 259 260 261 262 264 265 266 268 271 274 275
238 236 235 235 233 233 234 235 235 236 236 236 237 239 240 241 242 243 245 246 248 250 251 252 254 255 256 256 255 257 259 257 254 253 253 251 248 246 245 243 242 245 247 244 241 242 243 244 245 246 247 248 249 250 251 252 253 255 257 258 258 256 254 251 249 249 250 252 253 254 255 256 256 256 256 257 258 260 262 263 265 268 272 274 273
240 239 239 237 235 234 234 234 235 236 236 236 236 237 238 239 240 242 243 244 245 247 248 250 252 253 254 253 254 256 259 257 255 254 253 253 251 247 247 247 245 244 246 246 244 243 242 242 243 244 245 246 246 248 250 250 251 252 255 257 258 258 257 255 251 249 248 249 250 251 252 253 254 254 255 255 255 257 259 261 264 268 270 270 271
243 242 241 240 238 237 235 234 234 235 236 236 237 237 237 237 237 239 240 241 243 244 244 246 249 251 251 251 253 256 258 258 258 256 255 256 257 253 252 255 253 247 247 249 248 245 242 241 242 243 245 245 245 246 247 248 250 251 253 256 258 258 257 256 255 252 250 249 249 250 250 250 251 253 254 255 255 256 258 261 264 266 267 268 270
245 244 244 243 242 241 238 236 235 235 236 237 237 237 237 237 237 237 237 238 240 241 240 240 242 245 248 249 249 252 255 258 259 258 257 259 261 259 258 260 257 250 248 249 248 247 246 244 244 244 246 247 247 246 247 248 249 250 252 255 257 257 257 256 256 254 254 252 251 251 250 250 250 251 253 255 256 257 258 261 264 266 267 269 271
247 246 245 245 245 244 242 240 237 236 235 236 237 237 237 237 237 237 237 237 238 239 239 238 239 241 244 246 246 247 251 255 256 257 258 260 263 263 262 262 260 256 253 249 247 248 249 248 248 248 248 249 249 248 248 249 250 250 251 253 254 254 255 255 254 254 254 254 254 253 252 251 250 250 252 254 256 258 259 261 263 266 268 270 272
247 246 246 246 246 246 245 244 241 239 237 236 237 238 238 238 237 237 237 237 237 238 239 239 239 240 242 244 244 245 249 251 252 254 257 259 261 263 263 262 261 261 258 252 247 247 248 249 250 252 252 252 252 251 250 250 250 250 251 252 253 253 254 254 253 252 252 253 254 255 255 254 253 252 252 253 255 258 260 261 263 265 268 271 272
247 247 246 247 247 247 246 246 245 242 240 238 237 237 238 239 239 238 237 238 238 238 238 239 240 241 241 243 243 243 245 247 249 252 255 256 258 260 261 261 261 260 259 256 250 248 249 249 249 250 252 252 252 252 251 251 250 251 252 254 255 256 257 256 255 254 253 251 252 253 255 256 255 254 253 254 256 258 261 262 263 264 265 266 266
249 247 246 246 247 247 247 247 246 245 244 242 240 238 237 238 239 239 238 238 238 238 238 238 239 241 241 241 242 242 243 244 246 249 250 252 256 259 259 259 261 261 260 259 256 253 252 251 249 248 250 251 251 252 252 251 250 252 254 255 256 257 258 258 257 257 254 251 249 250 253 255 257 258 258 259 259 261 262 262 261 259 257 256 257
251 250 248 247 246 247 247 247 247 247 246 245 243 242 239 238 238 239 240 239 239 239 239 238 239 240 241 241 241 242 242 243 245 247 248 249 252 255 256 257 259 261 260 259 258 257 257 255 252 250 251 252 252 252 254 254 253 254 256 256 256 256 257 258 258 257 255 252 250 250 251 255 259 262 263 262 261 260 260 259 255 252 251 251 252
253 252 251 249 247 247 247 247 247 247 247 246 246 245 243 241 240 239 240 240 240 240 240 239 239 239 240 241 242 243 243 243 244 246 248 248 248 251 254 255 257 260 259 256 255 256 256 256 256 254 254 254 255 256 259 260 258 256 257 257 257 257 257 258 258 257 255 253 253 253 253 255 257 260 261 260 259 257 254 252 250 249 250 250 251
254 254 253 252 250 248 247 247 247 247 247 247 246 246 245 244 243 241 240 240 240 240 241 241 240 240 240 241 242 243 244 244 244 246 248 249 249 251 253 254 254 258 259 257 255 256 256 256 256 256 256 257 259 262 264 263 259 256 257 258 258 256 256 258 259 259 257 254 254 256 255 253 253 255 255 253 252 250 247 247 247 249 251 253 254
256 256 255 254 253 252 250 248 248 248 247 247 247 247 247 246 245 244 243 241 240 240 241 242 242 241 240 241 242 243 244 245 245 246 247 248 249 251 252 252 253 255 259 259 258 258 257 257 257 258 258 259 261 265 266 264 262 259 257 257 257 255 254 256 259 259 257 255 255 255 252 246 246 249 248 245 245 245 245 246 248 249 251 254 256
Height
5915 5917 5918 5918 5919 5920 5921 5922 5924 5925 5926 5927 5928 5929 5931 5932 5933 5935 5936 5937 5938 5938 5939 5940 5941 5942 5943 5944 5944 5945 5947 5947 5948 5949 5949 5950 5951 5951 5952 5952 5952 5953 5953 5953 5954 5954 5955 5955 5955 5956 5956 5956 5957 5957 5958 5958 5958 5958 5959 5959 5960 5960 5960 5961 5961 5961 5962 5962 5962 5962 5963 5963 5964 5964 5964 5964 5964 5965 5966 5966 5966 5966 5966 5966 5967
5915 5916 5917 5918 5919 5920 5921 5922 5923 5924 5925 5926 5928 5929 5930 5932 5933 5934 5936 5937 5938 5939 5940 5941 5942 5943 5943 5944 5945 5946 5947 5948 5949 5949 5950 5951 5951 5952 5952 5953 5953 5954 5954 5954 5954 5955 5956 5956 5956 5957 5957 5958 5958 5959 5959 5960 5960 5960 5960 5960 5961 5961 5962 5962 5963 5963 5963 5963 5963 5964 5964 5964 5964 5965 5965 5965 5965 5966 5967 5967 5967 5967 5967 5967 5968
5915 5916 5917 5918 5919 5920 5921 5921 5923 5924 5925 5926 5927 5928 5930 5931 5932 5934 5935 5937 5938 5939 5940 5941 5942 5943 5944 5945 5946 5947 5947 5948 5949 5950 5950 5951 5952 5952 5953 5953 5954 5954 5954 5955 5955 5956 5956 5957 5957 5958 5958 5959 5960 5960 5961 5961 5961 5961 5961 5961 5962 5962 5963 5963 5964 5964 5964 5964 5964 5965 5965 5965 5965 5965 5965 5966 5966 5967 5968 5968 5968 5968 5968 5968 5969
5915 5916 5917 5917 5918 5919 5920 5921 5922 5924 5925 5926 5927 5928 5929 5930 5932 5933 5935 5937 5938 5940 5941 5942 5943 5943 5944 5945 5946 5947 5948 5949 5950 5951 5951 5951 5952 5953 5953 5954 5954 5955 5955 5955 5956 5956 5957 5958 5958 5959 5959 5960 5960 5961 5961 5962 5962 5962 5962 5962 5962 5963 5963 5964 5965 5965 5965 5965 5965 5966 5966 5966 5966 5966 5966 5967 5967 5968 5968 5969 5969 5969 5969 5969 5970
5914 5915 5916 5917 5918 5919 5920 5921 5922 5923 5924 5925 5926 5927 5928 5930 5931 5933 5934 5936 5938 5940 5941 5942 5943 5943 5944 5945 5946 5947 5948 5949 5950 5951 5951 5951 5952 5953 5954 5954 5955 5955 5956 5956 5956 5957 5958 5958 5959 5959 5960 5960 5961 5962 5962 5963 5963 5963 5963 5963 5963 5963 5964 5965 5965 5965 5966 5966 5966 5967 5967 5967 5967 5967 5967 5968 5968 5969 5969 5970 5970 5970 5970 5970 5971
5913 5915 5916 5917 5918 5919 5920 5921 5921 5923 5924 5925 5926 5927 5928 5929 5931 5932 5934 5936 5938 5939 5941 5941 5942 5943 5944 5945 5946 5947 5948 5949 5950 5951 5951 5952 5952 5953 5954 5954 5955 5956 5956 5957 5957 5957 5958 5959 5959 5960 5960 5961 5962 5962 5963 5963 5964 5964 5964 5964 5964 5964 5965 5965 5965 5966 5966 5967 5967 5968 5968 5968 5968 5969 5969 5969 5969 5970 5970 5971 5971 5971 5971 5971 5972
5913 5914 5915 5916 5917 5918 5919 5920 5921 5922 5923 5924 5926 5927 5928 5929 5931 5932 5934 5936 5937 5939 5940 5941 5942 5943 5944 5945 5946 5948 5948 5949 5950 5950 5951 5952 5953 5953 5954 5955 5955 5956 5957 5957 5957 5958 5959 5959 5960 5960 5961 5961 5962 5963 5964 5964 5964 5965 5965 5966 5965 5965 5965 5966 5966 5966 5967 5967 5968 5968 5969 5969 5969 5970 5970 5970 5971 5971 5971 5972 5972 5972 5973 5973 5973
5912 5914 5914 5915 5916 5918 5918 5919 5920 5921 5923 5924 5925 5926 5928 5929 5930 5932 5933 5935 5937 5938 5939 5940 5942 5943 5944 5945 5947 5948 5948 5949 5950 5950 5951 5952 5952 5953 5954 5955 5956 5957 5957 5958 5958 5958 5959 5960 5960 5961 5961 5962 5963 5963 5964 5964 5965 5965 5966 5966 5966 5966 5966 5967 5967 5967 5967 5968 5968 5969 5969 5970 5970 5971 5971 5971 5972 5972 5972 5973 5973 5974 5974 5974 5974
5911 5913 5914 5915 5916 5917 5918 5919 5920 5921 5922 5923 5924 5925 5927 5928 5930 5931 5933 5935 5936 5937 5938 5940 5941 5943 5944 5945 5946 5948 5948 5949 5949 5950 5951 5952 5952 5953 5954 5955 5956 5957 5958 5958 5958 5959 5959 5960 5961 5961 5962 5962 5963 5964 5964 5964 5965 5966 5966 5966 5967 5967 5967 5967 5967 5967 5967 5968 5969 5969 5970 5970 5971 5971 5972 5972 5973 5973 5973 5974 5974 5975 5975 5975 5975
5909 5911 5913 5914 5915 5916 5917 5918 5919 5920 5921 5922 5923 5924 5926 5927 5929 5931 5932 5934 5935 5937 5938 5939 5941 5942 5944 5945 5946 5947 5948 5948 5949 5950 5950 5951 5952 5953 5954 5955 5956 5957 5958 5959 5959 5960 5960 5961 5961 5962 5962 5963 5963 5964 5964 5965 5965 5966 5966 5967 5967 5967 5967 5968 5968 5968 5968 5969 5969 5970 5970 5971 5971 5972 5972 5973 5973 5974 5974 5975 5975 5975 5976 5976 5976
5909 5910 5912 5913 5914 5915 5916 5917 5919 5919 5919 5921 5922 5923 5925 5926 5928 5929 5931 5933 5934 5936 5937 5938 5940 5942 5943 5945 5946 5947 5947 5948 5949 5950 5950 5951 5952 5953 5954 5955 5956 5957 5958 5959 5960 5960 5961 5961 5961 5962 5963 5963 5964 5964 5964 5965 5966 5966 5967 5967 5967 5968 5968 5968 5968 5968 5969 5969 5970 5970 5971 5971 5972 5972 5973 5973 5974 5974 5975 5975 5976 5976 5977 5977 5977
5908 5909 5910 5911 5913 5913 5915 5916 5918 5919 5919 5920 5921 5922 5924 5925 5926 5928 5930 5931 5933 5935 5936 5937 5939 5941 5942 5944 5945 5946 5947 5948 5949 5950 5951 5951 5952 5953 5954 5955 5956 5957 5958 5959 5960 5960 5961 5961 5962 5963 5963 5964 5964 5965 5965 5965 5966 5967 5967 5967 5968 5968 5968 5968 5968 5969 5969 5970 5970 5971 5971 5972 5972 5973 5973 5974 5974 5975 5975 5976 5976 5977 5977 5978 5978
5907 5908 5909 5910 5912 5913 5913 5914 5916 5918 5919 5919 5920 5921 5922 5924 5925 5927 5928 5929 5931 5933 5935 5936 5938 5939 5941 5943 5944 5945 5946 5948 5949 5950 5951 5951 5952 5953 5954 5955 5956 5957 5958 5959 5960 5960 5961 5961 5962 5963 5964 5964 5965 5965 5965 5966 5966 5967 5967 5967 5968 5968 5969 5969 5969 5969 5970 5970 5971 5971 5971 5972 5973 5973 5974 5974 5974 5975 5976 5976 5977 5977 5978 5978 5979
5906 5908 5909 5910 5911 5912 5912 5912 5913 5916 5918 5918 5918 5920 5921 5922 5923 5925 5926 5927 5929 5932 5933 5935 5936 5938 5940 5942 5943 5944 5946 5947 5948 5949 5950 5951 5952 5953 5954 5955 5956 5957 5958 5958 5959 5960 5961 5961 5962 5963 5964 5964 5965 5965 5966 5966 5967 5967 5967 5968 5968 5968 5969 5969 5969 5970 5970 5970 5971 5971 5972 5972 5973 5974 5974 5974 5975 5975 5976 5976 5977 5977 5978 5978 5979
5902 5904 5906 5907 5907 5909 5910 5911 5912 5915 5916 5917 5917 5918 5919 5921 5922 5923 5924 5926 5927 5930 5932 5934 5935 5937 5939 5941 5942 5943 5945 5947 5948 5949 5950 5951 5952 5953 5953 5955 5956 5957 5958 5958 5959 5960 5961 5961 5962 5963 5963 5964 5965 5965 5966 5966 5967 5967 5968 5968 5968 5969 5969 5970 5970 5970 5971 5971 5971 5972 5972 5973 5973 5974 5974 5975 5975 5975 5976 5976 5977 5978 5978 5979 5980
5896 5897 5900 5903 5905 5907 5909 5910 5912 5913 5915 5915 5916 5917 5918 5919 5920 5921 5923 5924 5926 5928 5930 5932 5933 5936 5938 5939 5941 5942 5943 5945 5947 5948 5949 5950 5951 5952 5953 5954 5955 5957 5957 5958 5959 5959 5960 5961 5962 5962 5963 5964 5964 5965 5965 5966 5967 5968 5968 5968 5969 5969 5970 5970 5971 5971 5971 5972 5972 5972 5973 5973 5974 5974 5975 5975 5975 5976 5976 5977 5977 5978 5978 5979 5980
5894 5894 5896 5900 5904 5907 5907 5908 5910 5911 5913 5914 5915 5916 5917 5917 5918 5919 5921 5922 5924 5926 5928 5930 5932 5934 5936 5938 5939 5941 5942 5944 5945 5947 5948 5949 5950 5951 5953 5954 5955 5956 5957 5958 5958 5959 5960 5960 5961 5962 5963 5963 5964 5965 5965 5966 5967 5968 5968 5968 5969 5969 5970 5970 5971 5971 5972 5972 5973 5973 5973 5974 5974 5975 5975 5975 5976 5976 5976 5977 5977 5978 5979 5979 5980
5894 5895 5896 5898 5902 5904 5904 5906 5907 5910 5912 5912 5913 5914 5915 5916 5917 5918 5920 5921 5923 5924 5926 5928 5930 5933 5934 5936 5938 5939 5940 5942 5944 5946 5947 5948 5949 5950 5952 5953 5954 5955 5956 5957 5958 5959 5959 5960 5961 5961 5962 5963 5964 5964 5965 5966 5967 5968 5968 5968 5968 5969 5970 5970 5971 5971 5972 5973 5973 5973 5974 5974 5975 5975 5975 5976 5976 5976 5977 5977 5978 5978 5979 5979 5980
5892 5894 5895 5897 5900 5902 5903 5904 5906 5909 5911 5911 5912 5913 5914 5915 5916 5917 5918 5920 5922 5923 5925 5927 5929 5931 5933 5935 5936 5937 5938 5940 5942 5944 5946 5947 5948 5949 5951 5952 5953 5954 5955 5957 5958 5958 5959 5959 5960 5961 5962 5962 5963 5964 5965 5966 5966 5967 5967 5968 5968 5969 5970 5970 5970 5971 5972 5973 5973 5973 5974 5974 5975 5975 5976 5976 5976 5977 5977 5978 5978 5979 5979 5980 5980
5891 5891 5892 5894 5897 5899 5901 5902 5904 5906 5908 5908 5910 5912 5913 5914 5916 5917 5918 5920 5922 5923 5925 5926 5928 5929 5931 5933 5934 5935 5937 5939 5940 5942 5944 5945 5947 5948 5949 5951 5952 5954 5955 5956 5957 5958 5958 5959 5959 5960 5961 5962 5962 5963 5964 5965 5966 5966 5967 5967 5968 5969 5970 5970 5971 5972 5972 5972 5973 5974 5974 5974 5975 5975 5976 5976 5977 5977 5978 5978 5979 5979 5980 5980 5981
5889 5890 5890 5891 5891 5892 5896 5899 5900 5901 5904 5906 5908 5910 5912 5913 5915 5916 5917 5918 5920 5922 5924 5925 5927 5929 5930 5932 5933 5934 5935 5937 5939 5940 5942 5944 5946 5947 5948 5950 5951 5953 5954 5955 5956 5957 5958 5958 5959 5960 5960 5961 5961 5962 5963 5964 5965 5966 5966 5967 5967 5968 5969 5969 5970 5971 5971 5972 5973 5973 5974 5974 5975 5975 5976 5976 5977 5977 5978 5979 5979 5980 5980 5980 5981
5888 5889 5890 5891 5889 5889 5894 5897 5896 5898 5902 5904 5906 5909 5911 5912 5914 5915 5915 5916 5917 5920 5922 5924 5926 5928 5930 5931 5932 5933 5934 5936 5937 5939 5940 5942 5944 5945 5947 5949 5950 5951 5952 5954 5955 5956 5957 5958 5958 5959 5959 5960 5960 5961 5962 5963 5964 5965 5966 5966 5967 5968 5968 5969 5970 5970 5971 5972 5973 5973 5973 5974 5974 5975 5975 5976 5977 5977 5978 5979 5979 5979 5980 5980 5981
5888 5888 5889 5890 5890 5891 5894 5895 5894 5895 5898 5901 5903 5906 5908 5910 5913 5914 5913 5912 5914 5917 5920 5922 5924 5926 5928 5929 5931 5932 5934 5935 5936 5937 5939 5940 5942 5943 5945 5947 5948 5949 5950 5952 5953 5955 5956 5957 5957 5958 5958 5959 5959 5960 5961 5962 5963 5964 5965 5966 5967 5967 5968 5968 5969 5970 5970 5971 5972 5972 5973 5973 5973 5974 5974 5975 5976 5977 5978 5978 5979 5979 5979 5980 5980
5886 5887 5888 5888 5889 5891 5893 5894 5893 5892 5894 5898 5901 5903 5905 5908 5911 5911 5910 5910 5911 5913 5917 5919 5921 5923 5925 5927 5929 5931 5932 5934 5935 5937 5938 5939 5940 5942 5943 5945 5946 5947 5949 5950 5951 5953 5954 5955 5956 5957 5957 5958 5959 5959 5960 5962 5963 5963 5964 5965 5966 5967 5967 5968 5969 5969 5970 5970 5971 5972 5972 5973 5973 5973 5974 5974 5975 5976 5977 5977 5978 5978 5979 5979 5979
5884 5885 5886 5887 5888 5889 5890 5892 5893 5892 5894 5897 5899 5901 5902 5906 5908 5909 5908 5908 5907 5909 5913 5916 5918 5921 5922 5924 5927 5929 5931 5932 5934 5935 5937 5938 5939 5940 5941 5943 5944 5945 5947 5948 5949 5951 5952 5953 5954 5955 5956 5957 5958 5959 5960 5961 5962 5963 5964 5964 5965 5966 5967 5967 5968 5968 5969 5969 5970 5971 5971 5972 5972 5973 5973 5974 5974 5975 5975 5976 5976 5977 5977 5978 5978
5882 5883 5885 5885 5886 5888 5889 5889 5891 5892 5894 5896 5898 5899 5901 5903 5905 5905 5906 5908 5908 5910 5913 5915 5916 5918 5920 5923 5924 5926 5928 5930 5932 5934 5935 5936 5938 5938 5940 5941 5942 5944 5945 5946 5947 5949 5951 5952 5953 5954 5955 5956 5957 5958 5959 5960 5961 5962 5963 5964 5964 5965 5966 5967 5967 5968 5968 5969 5969 5970 5971 5971 5972 5972 5972 5973 5973 5974 5974 5974 5975 5975 5976 5976 5977
5879 5881 5882 5883 5884 5886 5887 5888 5889 5890 5892 5894 5896 5898 5899 5900 5901 5902 5906 5909 5909 5908 5910 5912 5914 5916 5918 5920 5922 5924 5926 5927 5929 5931 5933 5934 5936 5937 5938 5939 5941 5942 5944 5945 5946 5947 5949 5950 5951 5953 5954 5955 5956 5957 5958 5959 5960 5961 5962 5962 5963 5964 5965 5966 5967 5967 5968 5968 5969 5969 5970 5970 5971 5971 5972 5972 5972 5973 5973 5973 5974 5974 5974 5975 5975
5876 5878 5879 5881 5882 5883 5885 5886 5887 5888 5890 5891 5893 5895 5896 5896 5897 5900 5904 5907 5907 5906 5908 5910 5912 5915 5917 5919 5920 5921 5923 5925 5927 5929 5930 5932 5934 5935 5937 5938 5939 5941 5942 5943 5944 5946 5947 5949 5950 5951 5953 5954 5955 5955 5956 5957 5958 5960 5960 5961 5962 5963 5964 5965 5966 5966 5967 5968 5968 5969 5969 5970 5970 5971 5971 5971 5972 5972 5972 5973 5973 5973 5973 5973 5973
5873 5875 5876 5878 5879 5881 5883 5884 5885 5886 5888 5889 5890 5891 5891 5891 5892 5896 5901 5904 5904 5905 5907 5908 5911 5914 5916 5917 5918 5920 5921 5923 5924 5926 5928 5930 5932 5933 5935 5936 5937 5939 5940 5941 5943 5944 5946 5947 5948 5950 5951 5952 5953 5954 5955 5956 5957 5958 5959 5960 5960 5961 5962 5963 5964 5965 5966 5967 5967 5968 5968 5969 5970 5970 5970 5971 5971 5971 5971 5972 5972 5972 5972 5972 5972
5869 5871 5873 5875 5876 5878 5880 5881 5883 5884 5885 5887 5888 5889 5889 5888 5888 5891 5897 5901 5901 5902 5903 5904 5907 5910 5912 5914 5916 5918 5919 5921 5922 5924 5926 5927 5929 5930 5932 5934 5935 5937 5938 5939 5941 5942 5944 5945 5947 5948 5949 5950 5951 5952 5953 5954 5954 5955 5957 5958 5959 5960 5961 5962 5962 5963 5964 5965 5966 5967 5968 5968 5968 5969 5969 5970 5970 5970 5970 5971 5971 5971 5971 5971 5971
5866 5868 5870 5872 5873 5875 5877 5878 5880 5882 5883 5884 5886 5887 5887 5887 5886 5888 5892 5897 5898 5899 5900 5901 5903 5905 5907 5910 5913 5914 5916 5918 5919 5921 5922 5924 5925 5927 5929 5931 5933 5935 5936 5938 5939 5940 5942 5943 5945 5946 5947 5948 5949 5950 5951 5952 5952 5953 5954 5956 5957 5958 5959 5960 5961 5961 5962 5963 5964 5965 5966 5967 5967 5968 5968 5968 5969 5969 5969 5969 5969 5970 5970 5970 5970
5862 5864 5866 5868 5870 5872 5874 5875 5877 5879 5880 5882 5883 5884 5884 5885 5885 5885 5888 5892 5896 5898 5899 5900 5901 5901 5902 5904 5907 5909 5912 5914 5916 5917 5918 5920 5922 5923 5926 5928 5930 5932 5933 5935 5937 5938 5940 5941 5943 5944 5946 5947 5948 5949 5950 5950 5950 5951 5952 5954 5955 5956 5957 5958 5959 5960 5960 5961 5962 5963 5964 5965 5966 5966 5966 5967 5967 5967 5968 5968 5968 5968 5968 5968 5968
5858 5860 5863 5865 5867 5868 5870 5872 5874 5875 5877 5879 5880 5881 5882 5882 5883 5883 5884 5888 5893 5895 5897 5899 5899 5899 5899 5900 5901 5903 5906 5909 5911 5912 5914 5916 5917 5919 5922 5924 5926 5928 5930 5932 5934 5936 5938 5939 5941 5943 5945 5946 5947 5948 5949 5950 5949 5950 5951 5952 5953 5954 5955 5956 5957 5958 5959 5960 5961 5962 5963 5964 5964 5964 5965 5965 5965 5966 5966 5966 5966 5966 5966 5966 5966
5854 5856 5859 5861 5863 5865 5866 5868 5870 5872 5874 5876 5877 5878 5879 5880 5880 5881 5881 5884 5888 5891 5893 5895 5895 5896 5898 5899 5899 5899 5901 5903 5905 5906 5909 5911 5913 5915 5918 5920 5922 5924 5926 5929 5932 5933 5935 5937 5938 5940 5942 5943 5944 5946 5948 5949 5948 5949 5949 5950 5952 5953 5954 5955 5955 5956 5957 5958 5959 5959 5960 5961 5962 5962 5963 5963 5963 5963 5964 5964 5964 5964 5965 5964 5964
5849 5851 5854 5856 5858 5860 5862 5864 5866 5868 5869 5871 5873 5875 5876 5877 5877 5878 5878 5880 5884 5886 5888 5890 5891 5892 5895 5897 5897 5898 5899 5900 5901 5903 5905 5907 5909 5911 5913 5915 5917 5919 5922 5925 5927 5929 5931 5933 5935 5937 5938 5940 5941 5942 5945 5946 5946 5946 5947 5949 5950 5952 5953 5953 5954 5954 5955 5956 5956 5957 5958 5959 5959 5960 5961 5961 5961 5961 5961 5961 5962 5962 5962 5962 5962
5844 5846 5849 5851 5854 5856 5858 5860 5862 5864 5865 5867 5869 5871 5872 5874 5875 5875 5876 5877 5880 5882 5884 5885 5887 5889 5891 5893 5894 5895 5896 5897 5898 5901 5903 5904 5906 5907 5908 5910 5912 5914 5917 5919 5922 5924 5926 5929 5931 5933 5935 5937 5938 5939 5940 5942 5942 5943 5943 5946 5948 5950 5951 5952 5952 5953 5953 5953 5954 5954 5955 5956 5956 5957 5958 5958 5958 5958 5958 5959 5959 5959 5959 5960 5960
5839 5841 5843 5846 5849 5851 5853 5855 5857 5859 5861 5862 5864 5866 5868 5870 5871 5872 5873 5874 5875 5877 5879 5880 5882 5885 5887 5888 5890 5892 5892 5894 5896 5898 5901 5903 5904 5906 5906 5907 5908 5910 5912 5915 5917 5919 5921 5924 5926 5928 5931 5933 5934 5936 5937 5938 5938 5938 5939 5941 5944 5946 5947 5949 5950 5951 5951 5951 5951 5952 5952 5952 5953 5954 5954 5954 5954 5954 5955 5955 5956 5956 5957 5957 5957
5834 5837 5839 5841 5843 5845 5848 5850 5852 5854 5856 5858 5859 5861 5863 5865 5867 5868 5869 5870 5872 5873 5875 5877 5878 5880 5882 5885 5888 5889 5888 5889 5892 5895 5898 5901 5903 5905 5905 5905 5905 5906 5907 5910 5912 5914 5916 5919 5922 5924 5926 5928 5930 5931 5933 5934 5935 5935 5935 5937 5938 5940 5942 5944 5946 5947 5948 5948 5949 5949 5949 5949 5950 5950 5950 5950 5951 5951 5951 5952 5952 5953 5954 5955 5955
5828 5831 5834 5836 5838 5840 5843 5845 5847 5849 5851 5853 5854 5856 5858 5860 5863 5864 5866 5867 5868 5869 5871 5873 5874 5876 5878 5882 5885 5885 5885 5886 5888 5890 5893 5896 5898 5900 5900 5901 5902 5903 5904 5905 5907 5910 5912 5914 5917 5919 5921 5923 5925 5926 5928 5930 5931 5931 5932 5933 5934 5936 5937 5939 5941 5942 5944 5945 5945 5945 5945 5946 5946 5946 5946 5946 5947 5947 5947 5948 5948 5949 5951 5952 5952
5822 5825 5828 5830 5832 5835 5837 5839 5842 5843 5845 5848 5849 5851 5853 5855 5857 5859 5861 5863 5864 5865 5867 5869 5870 5872 5875 5878 5880 5880 5881 5883 5885 5886 5889 5890 5892 5893 5894 5895 5897 5900 5901 5901 5902 5904 5907 5909 5912 5914 5916 5919 5920 5921 5923 5925 5926 5926 5927 5929 5931 5933 5934 5935 5936 5937 5938 5940 5941 5942 5942 5942 5942 5942 5942 5942 5942 5943 5943 5944 5945 5946 5948 5949 5947
5816 5819 5821 5823 5826 5829 5831 5834 5836 5838 5840 5842 5844 5846 5848 5850 5852 5854 5856 5858 5860 5861 5863 5864 5866 5868 5870 5873 5875 5875 5877 5879 5881 5883 5884 5885 5886 5888 5889 5890 5893 5896 5898 5898 5898 5900 5902 5904 5906 5909 5911 5913 5915 5916 5918 5919 5921 5922 5922 5924 5926 5928 5930 5931 5932 5933 5934 5936 5937 5938 5939 5939 5938 5938 5938 5938 5938 5939 5940 5940 5942 5943 5944 5944 5943
5810 5812 5814 5817 5820 5823 5825 5828 5830 5832 5834 5837 5839 5841 5842 5845 5847 5849 5850 5853 5854 5856 5858 5860 5861 5863 5865 5868 5870 5871 5873 5875 5876 5878 5879 5880 5882 5884 5886 5887 5890 5893 5895 5896 5896 5896 5897 5899 5901 5904 5906 5908 5910 5911 5912 5914 5916 5917 5918 5919 5921 5923 5925 5926 5928 5929 5931 5932 5933 5934 5934 5935 5935 5934 5934 5934 5935 5936 5936 5938 5939 5940 5940 5939 5939
5803 5805 5808 5811 5813 5816 5819 5822 5824 5827 5829 5831 5833 5835 5837 5839 5842 5843 5845 5847 5849 5851 5853 5855 5857 5858 5859 5862 5865 5867 5868 5870 5871 5873 5875 5876 5877 5880 5882 5883 5885 5888 5890 5891 5892 5892 5893 5895 5897 5899 5901 5903 5905 5906 5907 5909 5911 5913 5914 5915 5916 5917 5919 5920 5923 5925 5927 5928 5929 5930 5930 5931 5931 5931 5930 5930 5931 5932 5934 5935 5936 5936 5936 5935 5934
5796 5799 5802 5805 5807 5809 5812 5815 5818 5821 5823 5825 5827 5829 5831 5834 5836 5838 5840 5842 5844 5846 5848 5850 5852 5854 5855 5857 5860 5862 5864 5866 5867 5868 5869 5870 5872 5874 5877 5878 5879 5882 5884 5885 5886 5887 5889 5891 5894 5895 5897 5899 5900 5901 5903 5905 5907 5908 5909 5910 5911 5912 5913 5914 5916 5919 5921 5922 5924 5925 5926 5926 5927 5927 5927 5926 5926 5928 5930 5932 5932 5931 5931 5930 5930
5790 5793 5796 5798 5800 5802 5805 5807 5810 5814 5816 5819 5821 5823 5825 5828 5830 5832 5834 5836 5838 5840 5842 5844 5846 5848 5850 5852 5855 5857 5859 5862 5863 5863 5864 5865 5866 5869 5871 5873 5875 5878 5879 5880 5881 5882 5884 5887 5889 5891 5893 5894 5895 5897 5898 5900 5901 5902 5903 5905 5905 5906 5907 5908 5910 5912 5914 5916 5917 5919 5920 5921 5922 5923 5922 5922 5922 5924 5926 5927 5928 5927 5927 5926 5926
5783 5786 5789 5791 5793 5795 5798 5800 5803 5806 5809 5812 5814 5817 5819 5821 5823 5826 5828 5830 5832 5835 5836 5838 5840 5842 5845 5847 5849 5852 5854 5855 5856 5857 5859 5861 5862 5865 5867 5869 5871 5873 5875 5875 5876 5877 5879 5882 5884 5886 5888 5889 5890 5892 5893 5894 5894 5895 5897 5899 5899 5900 5901 5902 5905 5907 5908 5909 5910 5912 5913 5914 5915 5916 5917 5918 5918 5919 5921 5922 5923 5923 5922 5922 5921
5777 5779 5782 5784 5786 5788 5791 5793 5796 5799 5801 5804 5807 5810 5812 5814 5816 5819 5821 5824 5826 5828 5830 5833 5835 5836 5838 5841 5843 5845 5848 5849 5849 5851 5854 5856 5858 5860 5862 5863 5865 5868 5869 5871 5872 5873 5875 5877 5879 5880 5882 5884 5885 5887 5887 5886 5887 5889 5891 5892 5893 5894 5895 5896 5898 5900 5901 5902 5904 5905 5907 5908 5910 5912 5913 5914 5915 5916 5916 5917 5918 5918 5917 5917 5916
5770 5773 5775 5778 5780 5781 5783 5785 5788 5791 5793 5796 5799 5802 5805 5808 5810 5812 5814 5817 5819 5821 5824 5826 5828 5830 5832 5834 5837 5839 5842 5844 5845 5846 5848 5851 5853 5855 5856 5858 5860 5862 5864 5866 5868 5869 5871 5872 5874 5875 5877 5879 5880 5880 5880 5880 5883 5886 5887 5887 5888 5890 5890 5890 5891 5892 5894 5896 5898 5900 5901 5904 5906 5909 5911 5911 5911 5912 5912 5912 5912 5912 5912 5912 5911
5762 5764 5767 5769 5772 5774 5776 5778 5780 5782 5785 5788 5791 5794 5797 5800 5803 5805 5807 5809 5812 5814 5817 5819 5821 5824 5826 5828 5830 5832 5835 5837 5839 5841 5843 5846 5847 5849 5851 5853 5855 5857 5858 5860 5862 5865 5866 5867 5869 5871 5873 5873 5873 5873 5875 5877 5880 5882 5883 5883 5885 5885 5884 5883 5884 5885 5888 5891 5893 5895 5897 5900 5903 5905 5907 5907 5907 5906 5906 5907 5907 5906 5907 5907 5907
5754 5756 5758 5760 5763 5766 5769 5770 5772 5774 5777 5780 5783 5786 5789 5792 5795 5797 5799 5802 5804 5807 5809 5811 5814 5816 5819 5821 5823 5825 5828 5830 5833 5835 5837 5839 5842 5843 5846 5848 5850 5852 5853 5854 5857 5859 5860 5862 5864 5866 5867 5867 5868 5869 5872 5874 5875 5875 5876 5877 5878 5879 5879 5878 5878 5879 5882 5886 5889 5890 5892 5895 5898 5900 5902 5902 5902 5901 5901 5901 5901 5901 5902 5901 5902
5746 5747 5749 5752 5754 5757 5760 5763 5765 5767 5769 5772 5775 5778 5780 5783 5786 5789 5791 5794 5796 5799 5801 5804 5806 5808 5811 5814 5816 5818 5821 5823 5826 5828 5830 5833 5835 5838 5840 5842 5844 5846 5848 5849 5852 5854 5855 5856 5859 5861 5862 5862 5863 5865 5867 5869 5869 5870 5870 5871 5872 5873 5874 5873 5874 5875 5878 5882 5885 5885 5886 5888 5891 5895 5897 5897 5896 5895 5896 5896 5896 5896 5897 5897 5897